Voltar ao catálogo

STARLINK-35757

AtivoComunicaçõesVLEO
NORAD 66270·PAYLOAD·🇺🇸 United States

Lançado Oct 31, 2025 de Vandenberg Space Force Base

Loading…

Próximas Passagens (próximas 24 horas)

TLE

AtualizadoSource: CelesTrak SupGP

Época: Sep 14, 2026, 22:32 UTC

1 66270C 25247F   26257.93937500  .00000037  00000+0  10859-5 0  2573
2 66270  53.1604  27.9832 0001234  82.2166 180.4168 15.34375804    17

Acompanhe STARLINK-35757 em tempo real com AllMySat

Download on the App Store